Location: Darmstadt
(49.8706°N, 8.6494°E)
Time: 06:35:37
(UTC+01:00)

Timation 1 Rocket - Pass Details

Date: 31 October 2020
Orbit: 896 x 911 km, 70.0° (Epoch: 03 December)

Event Time Altitude Azimuth Distance (km) Brightness Sun altitude
Rises 18:39:58 0° 328° (NNW) 3,550 7.8 -15.9°
Reaches altitude 10° 18:42:29 10° 329° (NNW) 2,606 7.1 -16.3°
Maximum altitude 18:48:32 89° 250° (WSW) 918 4.3 -17.3°
Drops below altitude 10° 18:54:33 10° 152° (SSE) 2,592 6.5 -18.3°
Enters shadow 18:56:31 - 152° (SSE) 3,333 7.0 -18.6°
